Regional Weather Roundup
Issued by NWS

Home | Current Version | Previous Version | Graphics & Text | Print | Product List | Glossary On
Versions: 1 2 3 4 5 6 7 8 9 10 11 12 13 14 15 16 17 18 19 20 21 22 23 24 25 26 27 28 29 30 31 32 33 34 35 36 37 38 39 40 41 42 43 44 45 46 47 48 49 50
048
ASUS43 KMKX 301911
RWRWI

WISCONSIN REGIONAL WEATHER ROUNDUP
NATIONAL WEATHER SERVICE MILWAUKEE/SULLIVAN WI
200 PM CDT FRI SEP 30 2016

NOTE: "FAIR" INDICATES FEW OR NO CLOUDS BELOW 12,000 FEET WITH NO
SIGNIFICANT WEATHER AND/OR OBSTRUCTIONS TO VISIBILITY.

WIZ001-002-006>008-014>016-023>028-302000-
NORTHWEST WISCONSIN

CITY           SKY/WX    TMP DP  RH WIND       PRES   REMARKS
SUPERIOR ARPT  CLOUDY    56  51  85 E8        30.39F
ASHLAND        CLOUDY    58  54  86 NE14      30.38F
HAYWARD        SUNNY     66  51  58 N13       30.33F
SIREN          SUNNY     67  50  53 NE8       30.32F
CUMBERLAND     SUNNY     66  46  48 NE7       30.30F
RICE LAKE      SUNNY     71  42  34 NE9       30.31F
CHETEK         NOT AVBL
LADYSMITH      SUNNY     70  46  42 NE12G20   30.31F
EAU CLAIRE     SUNNY     71  52  50 N8        30.26F
MENOMONIE      SUNNY     72  49  44 NE8       30.28F
NEW RICHMOND   MOSUNNY   71  46  41 NE7       30.29F
OSCEOLA        SUNNY     70  48  45 NE7       30.33F
$$

WIZ003>005-009-010-017-018-302000-
NORTH CENTRAL WISCONSIN

CITY           SKY/WX    TMP DP  RH WIND       PRES   REMARKS
MANITOWISH WTR NOT AVBL
ARBOR VITAE    PTSUNNY   69  50  50 NE13      30.32F
WOODRUFF       PTSUNNY   69  50  50 NE13      30.32F
RHINELANDER    MOSUNNY   68  49  50 NE10G20   30.32F
EAGLE RIVER    CLOUDY    67  44  43 NE8       30.32F
LAND O LAKES   SUNNY     69  45  42 NE8G16    30.34F
PHILLIPS       SUNNY     67  48  51 NE9       30.31F
TOMAHAWK       MOSUNNY   67  45  46 NE6       30.31F
MEDFORD        PTSUNNY   69  46  44 E10       30.28F HAZE
MERRILL        MOSUNNY   69  50  49 E14       30.29F
$$

WIZ029-030-035-036-043>047-302000-
CENTRAL WISCONSIN

CITY           SKY/WX    TMP DP  RH WIND       PRES   REMARKS
WAUSAU         PTSUNNY   68  51  54 NE10      30.25F
MOSINEE        CLOUDY    66  54  63 E12G17    30.27F
MARSHFIELD     CLOUDY    70  49  47 E15       30.25F
STEVENS POINT  CLOUDY    63  53  71 E9        30.26F
WAUPACA        CLOUDY    64  58  82 NE8G17    30.25F
WAUTOMA        LGT RAIN  59  58  96 NE8       30.24F FOG
WISC RAPIDS    CLOUDY    64  55  72 NE15G22   30.26F
CAMP DOUGLAS   CLOUDY    63  57  82 NE8G16    30.24F
$$

WIZ011>013-019>022-031-037>040-048>050-302000-
NORTHEAST WISCONSIN

CITY           SKY/WX    TMP DP  RH WIND       PRES   REMARKS
ANTIGO         MOSUNNY   65  52  63 E14       30.28F
SHAWANO        CLOUDY    65  55  68 NE14G21   30.27F
OCONTO         NOT AVBL
STURGEON BAY   CLOUDY    62  57  83 NE10G20   30.26F
GREEN BAY      CLOUDY    62  60  93 NE20G26   30.24F
MANITOWOC      LGT RAIN  61  58  90 NE7       30.23F FOG
APPLETON       CLOUDY    59  59 100 NE12      30.23F
CLINTONVILLE   CLOUDY    63  54  72 NE10      30.26F
OSHKOSH        CLOUDY    61  57  87 NE13      30.21F
$$

WIZ032>034-041-042-053>061-302000-
SOUTHWEST WISCONSIN

CITY           SKY/WX    TMP DP  RH WIND       PRES   REMARKS
LA CROSSE      CLOUDY    69  56  62 NE3       30.23F
SPARTA         CLOUDY    65  56  75 NE10      30.25F
VIROQUA        CLOUDY    61  56  83 NE7       30.24F
BOSCOBEL       CLOUDY    63  57  81 NE6       30.22F
PRAIRIE DU CHI CLOUDY    62  54  74 N5        30.21F
PLATTEVILLE    CLOUDY    61  59  92 N12       30.19F
$$

WIZ056-057-062-063-064-067-068-302000-
SOUTH CENTRAL WISCONSIN

CITY           SKY/WX    TMP DP  RH WIND       PRES   REMARKS
REEDSBURG      NOT AVBL
BARABOO/DELLS  CLOUDY    58  56  92 NE8       30.22F FOG
LONE ROCK      CLOUDY    63  57  81 NE12      30.21F
MINERAL POINT  CLOUDY    61  59  94 NE9       30.20F
MADISON        CLOUDY    63  57  81 E15       30.18F
MIDDLETON      CLOUDY    62  62  97 NE14G21   30.19F
WATERTOWN      CLOUDY    60  60 100 NE12      30.17F
MONROE         CLOUDY    61  57  88 N13G18    30.16F
JANESVILLE     CLOUDY    64  57  77 NE12G20   30.14F
$$

WIZ051-052-058>065-066-070>072-302000-
SOUTHEAST WISCONSIN

CITY           SKY/WX    TMP DP  RH WIND       PRES   REMARKS
MILWAUKEE      CLOUDY    63  58  83 NE9       30.16F
WAUKESHA       CLOUDY    57  57 100 NE9G16    30.18F
MILWAUKEE/TIMM CLOUDY    61  55  82 NE12G20   30.18F
RACINE         CLOUDY    63  59  87 NE15      30.16F
BURLINGTON     CLOUDY    62  58  86 E13G20    30.14F
KENOSHA        CLOUDY    63  60  90 NE13G22   30.14F
FOND DU LAC    CLOUDY    62  57  83 NE14      30.21F
SHEBOYGAN      CLOUDY    61  57  87 NE17      30.21F
WEST BEND      CLOUDY    68  66  94 NE12      30.19F
JUNEAU         CLOUDY    60  56  85 N12       30.20F
$$

LSZ147-162-302000-
LAKE SUPERIOR

STATION/POSITION TIME  TEMP    WIND        PRES    WAVE
                       AIR SEA DIR/SP/G            HT/PER
                 (UTC) (F)     (DEG/KT/KT) (MB)    (FT/S)
W MID LAKE BUOY  1850   55 55   60/ 12/ 16 1028.9F   2/ 4
DEVILS ISLAND    1800   53      40/ 12/ 14 1030.3F
SAXON HARBOR     1840   57     360/  9/ 11 1028.1F
$$

LMZ867-665-643>646-302000-
LAKE MICHIGAN

STATION/POSITION TIME  TEMP    WIND        PRES    WAVE
                       AIR SEA DIR/SP/G            HT/PER
                 (UTC) (F)     (DEG/KT/KT) (MB)    (FT/S)
CHAMBERS ISLAND  1800   62      30/ 18/ 22 1025.7F
N MID LAKE BUOY  1850   62 65   40/ 17/ 21 1024.2F   4/ 5
NORTHPORT PIER   1800   62      40/ 13/ 20 1025.7F
SISTER BAY       1753   62      10/  8/ 12   N/A
KEWAUNEE LAKESHO 1800   62      40/ 11/ 17 1024.1F
SHEBOYGAN LAKESH 1900   60      30/ 15/ 17 1022.4F
PORT WASHINGTON  1800   62      60/ 12/ 15 1023.7F
ATWATER BUOY     1800   58 53   30/ 10/ 14 1022.0F
MILWAUKEE LAKESH 1810   59      30/ 11/ 12   N/A
S MID LAKE BUOY  1850   63 67   60/ 19/ 23 1019.2F   5/ 6
KENOSHA   LAKESH 1900   63      50/ 17/ 19 1020.0F
$$

TC  - TEMPERATURE IN CELSIUS
VSB - VISIBILITY IN STATUTE MILES
WCI - WIND CHILL INDEX
HX  - HEAT INDEX





USA.gov is the U.S. government's official web portal to all federal, state and local government web resources and services.